カタログに戻る

THORAD AGENA D DEB

運用中SSO
NORAD 5146·DEBRIS·🇺🇸 United States

打ち上げ Apr 8, 1970 から Vandenberg Space Force Base

Loading…

次のパス (今後24時間)

TLE

最新Source: Space-Track

元期: Sep 14, 2026, 13:29 UTC

1 05146U 70025JQ  26257.56226872  .00000036  00000-0  10534-3 0  9995
2 05146 100.0196 124.6889 0043042 152.5132 237.4267 13.62775497801488

AllMySatでTHORAD AGENA D DEBをリアルタイム追跡

Download on the App Store